Location: Moscow
(38.8570°N, 84.2291°W)
Time: 19:15:23
(UTC+00:00)

MOS 1 Rocket - Pass Details

Date: 15 November 2025
Orbit: 610 x 813 km, 97.4° (Epoch: 12 December)

Event Time Altitude Azimuth Distance (km) Brightness Sun altitude
Rises 23:33:18 0° 163° (SSE) 2,857 6.4 -13.8°
Reaches altitude 10° 23:35:27 10° 162° (SSE) 1,961 5.6 -14.2°
Maximum altitude 23:39:41 77° 77° (ENE) 642 2.9 -15.0°
Drops below altitude 10° 23:44:05 10° 351° (N) 2,033 5.7 -15.9°
Sets 23:46:20 0° 350° (N) 2,972 6.5 -16.3°
